When you browse on this site, cookies collect data to enhance your experience and personalize the content and advertising you see.
Visit our Privacy Policy to learn more. By continuing to use the site, you agree to this use of cookies and data.
  • In Österreich
  • Länderverzeichnis
  • Für 7 Tage
  • Wassertemperatur
  • Satellitenkarten
  • Wetterkarte
  • News
  • Widgets
  • user-avatar
    Anmelden

    Stündliche Wetter Djelfa

    Heute, 26 März, Dienstag

    Zeit Temperatur Niederschläge Wind Luftdruck Luftfeuchtigkeit
    00:00 +12°C° 0 mm 3 m/S 664 mmHg 54%
    01:00 +12°C° 0 mm 3 m/S 663 mmHg 54%
    02:00 +13°C° 0 mm 2 m/S 663 mmHg 55%
    03:00 +13°C° 0 mm 2 m/S 663 mmHg 56%
    04:00 +12°C° 0 mm 2 m/S 663 mmHg 57%
    05:00 +12°C° 0 mm 2 m/S 663 mmHg 59%
    06:00 +12°C° 0 mm 2 m/S 662 mmHg 61%
    07:00 +13°C° 0 mm 2 m/S 663 mmHg 55%
    08:00 +14°C° 0 mm 3 m/S 664 mmHg 48%
    09:00 +17°C° 0 mm 3 m/S 664 mmHg 41%
    10:00 +17°C° 0 mm 4 m/S 664 mmHg 39%
    11:00 +18°C° 0 mm 4 m/S 664 mmHg 37%
    12:00 +17°C° 0 mm 5 m/S 664 mmHg 36%
    13:00 +18°C° 0 mm 4 m/S 664 mmHg 36%
    14:00 +19°C° 0 mm 3 m/S 663 mmHg 37%
    15:00 +19°C° 0 mm 3 m/S 663 mmHg 38%
    16:00 +18°C° 0.2 mm 3 m/S 663 mmHg 43%
    17:00 +15°C° 0.2 mm 4 m/S 662 mmHg 49%
    18:00 +14°C° 0.2 mm 4 m/S 662 mmHg 54%
    19:00 +13°C° 1 mm 5 m/S 662 mmHg 63%
    20:00 +12°C° 1 mm 5 m/S 663 mmHg 72%
    21:00 +9°C° 1 mm 5 m/S 663 mmHg 81%
    22:00 +9°C° 0.1 mm 5 m/S 663 mmHg 82%
    23:00 +9°C° 0.1 mm 5 m/S 663 mmHg 83%

    Morgen, 27 März, Mittwoch

    Zeit Temperatur Niederschläge Wind Luftdruck Luftfeuchtigkeit
    00:00 +8°C° 0.1 mm 4 m/S 663 mmHg 84%
    01:00 +8°C° 0.2 mm 4 m/S 663 mmHg 85%
    02:00 +7°C° 0.2 mm 4 m/S 663 mmHg 86%
    03:00 +7°C° 0.2 mm 4 m/S 662 mmHg 87%
    04:00 +6°C° 0.5 mm 4 m/S 662 mmHg 87%
    05:00 +6°C° 0.5 mm 4 m/S 662 mmHg 86%
    06:00 +5°C° 0.5 mm 4 m/S 662 mmHg 86%
    07:00 +5°C° 0.6 mm 4 m/S 662 mmHg 85%
    08:00 +5°C° 0.6 mm 4 m/S 663 mmHg 84%
    09:00 +5°C° 0.6 mm 4 m/S 663 mmHg 82%
    10:00 +5°C° 1.5 mm 5 m/S 663 mmHg 81%
    11:00 +5°C° 1.5 mm 5 m/S 663 mmHg 80%
    12:00 +3°C° 1.5 mm 5 m/S 663 mmHg 79%
    13:00 +3°C° 0.6 mm 5 m/S 663 mmHg 76%
    14:00 +5°C° 0.6 mm 4 m/S 663 mmHg 73%
    15:00 +5°C° 0.6 mm 4 m/S 663 mmHg 70%
    16:00 +4°C° 2.4 mm 4 m/S 663 mmHg 72%
    17:00 +4°C° 2.4 mm 4 m/S 664 mmHg 74%
    18:00 +4°C° 2.4 mm 4 m/S 664 mmHg 76%
    19:00 +4°C° 1.2 mm 4 m/S 664 mmHg 76%
    20:00 +4°C° 1.2 mm 4 m/S 665 mmHg 77%
    21:00 +4°C° 1.2 mm 4 m/S 665 mmHg 77%
    22:00 +4°C° 0 mm 4 m/S 665 mmHg 77%
    23:00 +4°C° 0 mm 3 m/S 665 mmHg 76%

    übermorgen, 28 März, Donnerstag

    Zeit Temperatur Niederschläge Wind Luftdruck Luftfeuchtigkeit
    00:00 +4°C° 0 mm 3 m/S 665 mmHg 76%
    01:00 +4°C° 0 mm 3 m/S 665 mmHg 79%
    02:00 +5°C° 0 mm 2 m/S 665 mmHg 82%
    03:00 +6°C° 0 mm 1 m/S 665 mmHg 84%
    04:00 +6°C° 0 mm 1 m/S 665 mmHg 86%
    05:00 +5°C° 0 mm 1 m/S 666 mmHg 88%
    06:00 +5°C° 0 mm 1 m/S 666 mmHg 89%
    07:00 +6°C° 0 mm 2 m/S 666 mmHg 83%
    08:00 +7°C° 0 mm 2 m/S 667 mmHg 76%
    09:00 +8°C° 0 mm 3 m/S 667 mmHg 69%
    10:00 +9°C° 0 mm 3 m/S 667 mmHg 63%
    11:00 +10°C° 0 mm 2 m/S 667 mmHg 57%
    12:00 +12°C° 0 mm 2 m/S 667 mmHg 51%
    13:00 +12°C° 0 mm 2 m/S 667 mmHg 48%
    14:00 +13°C° 0 mm 2 m/S 667 mmHg 46%
    15:00 +13°C° 0 mm 1 m/S 667 mmHg 43%
    16:00 +13°C° 0 mm 1 m/S 667 mmHg 43%
    17:00 +13°C° 0 mm 2 m/S 667 mmHg 44%
    18:00 +12°C° 0 mm 2 m/S 667 mmHg 44%
    19:00 +12°C° 0 mm 2 m/S 667 mmHg 48%
    20:00 +10°C° 0 mm 2 m/S 668 mmHg 51%
    21:00 +10°C° 0 mm 3 m/S 668 mmHg 54%
    22:00 +9°C° 0 mm 3 m/S 668 mmHg 60%
    23:00 +9°C° 0 mm 3 m/S 668 mmHg 66%

    29 März, Freitag

    Zeit Temperatur Niederschläge Wind Luftdruck Luftfeuchtigkeit
    00:00 +8°C° 0 mm 3 m/S 668 mmHg 72%
    01:00 +8°C° 0 mm 3 m/S 668 mmHg 73%
    02:00 +8°C° 0 mm 3 m/S 667 mmHg 75%
    03:00 +7°C° 0 mm 3 m/S 667 mmHg 76%
    04:00 +7°C° 0 mm 3 m/S 667 mmHg 76%
    05:00 +7°C° 0 mm 3 m/S 667 mmHg 75%
    06:00 +5°C° 0 mm 3 m/S 667 mmHg 75%
    07:00 +6°C° 0 mm 4 m/S 668 mmHg 67%
    08:00 +8°C° 0 mm 5 m/S 668 mmHg 60%
    09:00 +9°C° 0 mm 6 m/S 669 mmHg 52%
    10:00 +10°C° 0 mm 6 m/S 669 mmHg 49%
    11:00 +11°C° 0 mm 6 m/S 669 mmHg 46%
    12:00 +13°C° 0 mm 6 m/S 669 mmHg 43%
    13:00 +13°C° 0 mm 5 m/S 668 mmHg 42%
    14:00 +13°C° 0 mm 5 m/S 668 mmHg 41%
    15:00 +13°C° 0 mm 4 m/S 668 mmHg 40%
    16:00 +13°C° 0 mm 4 m/S 668 mmHg 41%
    17:00 +13°C° 0 mm 4 m/S 668 mmHg 42%
    18:00 +12°C° 0 mm 4 m/S 667 mmHg 44%
    19:00 +12°C° 0 mm 5 m/S 668 mmHg 46%
    20:00 +10°C° 0 mm 5 m/S 668 mmHg 48%
    21:00 +10°C° 0 mm 6 m/S 669 mmHg 51%
    22:00 +9°C° 0 mm 6 m/S 668 mmHg 53%
    23:00 +8°C° 0 mm 7 m/S 668 mmHg 55%

    30 März, Samstag

    Zeit Temperatur Niederschläge Wind Luftdruck Luftfeuchtigkeit
    00:00 +8°C° 0 mm 7 m/S 668 mmHg 58%
    01:00 +6°C° 0 mm 7 m/S 668 mmHg 59%
    02:00 +6°C° 0 mm 7 m/S 668 mmHg 60%
    03:00 +5°C° 0 mm 7 m/S 667 mmHg 61%
    04:00 +5°C° 0 mm 6 m/S 667 mmHg 61%
    05:00 +6°C° 0 mm 5 m/S 667 mmHg 62%
    06:00 +5°C° 0 mm 5 m/S 667 mmHg 62%
    07:00 +7°C° 0 mm 6 m/S 668 mmHg 57%
    08:00 +8°C° 0 mm 7 m/S 668 mmHg 52%
    09:00 +9°C° 0 mm 8 m/S 668 mmHg 46%
    10:00 +10°C° 0 mm 9 m/S 668 mmHg 44%
    11:00 +11°C° 0 mm 9 m/S 668 mmHg 43%
    12:00 +12°C° 0 mm 10 m/S 668 mmHg 41%
    13:00 +12°C° 0 mm 9 m/S 667 mmHg 40%
    14:00 +13°C° 0 mm 9 m/S 667 mmHg 40%
    15:00 +13°C° 0 mm 8 m/S 666 mmHg 39%
    16:00 +12°C° 0 mm 8 m/S 666 mmHg 41%
    17:00 +12°C° 0 mm 7 m/S 666 mmHg 42%
    18:00 +11°C° 0 mm 7 m/S 665 mmHg 43%
    19:00 +11°C° 0.1 mm 8 m/S 666 mmHg 45%
    20:00 +10°C° 0.1 mm 8 m/S 666 mmHg 47%
    21:00 +9°C° 0.1 mm 8 m/S 666 mmHg 49%
    22:00 +9°C° 0 mm 8 m/S 665 mmHg 49%
    23:00 +8°C° 0 mm 9 m/S 665 mmHg 50%

    31 März, Sonntag

    Zeit Temperatur Niederschläge Wind Luftdruck Luftfeuchtigkeit
    00:00 +8°C° 0 mm 9 m/S 664 mmHg 50%
    01:00 +8°C° 0 mm 9 m/S 664 mmHg 52%
    02:00 +7°C° 0 mm 9 m/S 663 mmHg 54%
    03:00 +7°C° 0 mm 9 m/S 663 mmHg 56%
    04:00 +7°C° 0 mm 9 m/S 663 mmHg 57%
    05:00 +6°C° 0 mm 8 m/S 663 mmHg 59%
    06:00 +6°C° 0 mm 8 m/S 662 mmHg 60%
    07:00 +7°C° 0.2 mm 8 m/S 662 mmHg 59%
    08:00 +7°C° 0.2 mm 9 m/S 663 mmHg 59%
    09:00 +7°C° 0.2 mm 9 m/S 663 mmHg 58%
    10:00 +8°C° 0.3 mm 9 m/S 662 mmHg 58%
    11:00 +9°C° 0.3 mm 8 m/S 662 mmHg 57%
    12:00 +10°C° 0.3 mm 8 m/S 662 mmHg 57%
    13:00 +9°C° 1.1 mm 7 m/S 661 mmHg 62%
    14:00 +9°C° 1.1 mm 6 m/S 661 mmHg 66%
    15:00 +8°C° 1.1 mm 5 m/S 661 mmHg 71%
    16:00 +7°C° 1.8 mm 4 m/S 661 mmHg 76%
    17:00 +8°C° 1.8 mm 3 m/S 661 mmHg 80%
    18:00 +7°C° 1.8 mm 2 m/S 661 mmHg 84%
    19:00 +7°C° 0.5 mm 2 m/S 661 mmHg 84%
    20:00 +7°C° 0.5 mm 2 m/S 662 mmHg 84%
    21:00 +7°C° 0.5 mm 2 m/S 662 mmHg 84%
    22:00 +8°C° 0 mm 1 m/S 662 mmHg 85%
    23:00 +7°C° 0 mm 1 m/S 661 mmHg 87%
    Mehr zeigen